Weather History for Phnom Penh, Cambodia

Change the Weather History Date:

Monday, November 26, 2012

  Actual Average Record
Temperature  
Mean Temperature 85 °F -  
Max Temperature 95 °F 83 °F 95 °F (2012)
Min Temperature 75 °F 73 °F 71 °F (1998)
Cooling Degree Days 20    
Growing Degree Days 35 (Base 50)    
Moisture  
Dew Point 73 °F    
Average Humidity 67    
Maximum Humidity 96    
Minimum Humidity 47    
Precipitation  
Precipitation 0.00 in - - ()
Sea Level Pressure  
Sea Level Pressure 29.86 in    
Wind  
Wind Speed 5 mph ()    
Max Wind Speed 9 mph    
Max Gust Speed -    
Visibility 6.0 miles    
Events      
Averages and records for this station are not official NWS values.
T = Trace of Precipitation, MM = Missing Value Source: Averaged Metar Reports

Daily Weather History Graph

Daily Weather History Graph

Search for Another Location

Airport:

Trip Planner

Search our weather history database for the weather conditions in past years. The results will help you decide how hot, cold, wet, or windy it might be!

Date:

Astronomy

Nov. 26, 2012 Rise Set
Actual Time 6:02 AM ICT 5:33 PM ICT
Civil Twilight 5:39 AM ICT 5:56 PM ICT
Nautical Twilight 5:13 AM ICT 6:22 PM ICT
Astronomical Twilight 4:47 AM ICT 6:48 PM ICT
Moon 3:54 PM ICT (11/26) 3:57 AM ICT (11/26)
Length of Visible Light 12h 16m
Length of Day
11h 31m
Waxing Gibbous, 95% of the Moon is Illuminated
Nov 26
Waxing Gibbous
Nov 28
Full
Dec 6
Last Quarter
Dec 13
New
Dec 20
First Quarter

Hourly Weather History & Observations

Time (ICT) Temp. Heat Index Dew Point Humidity Pressure Visibility Wind Dir Wind Speed Gust Speed Precip Events Conditions
12:00 AM 78.8 °F - 73.4 °F 83% 29.89 in - North - - N/A   Scattered Clouds
12:30 AM 78.8 °F - 73.4 °F 83% 29.89 in - North - - N/A   Scattered Clouds
1:00 AM 78.8 °F - 75.2 °F 89% 29.89 in - North - - N/A   Scattered Clouds
6:00 AM 78.8 °F - 75.2 °F 89% 29.86 in - North - - N/A   Scattered Clouds
7:00 AM 78 °F - 77 °F 96% 29.88 in 6 mi North 2.2 mph - -   Partly Cloudy
7:00 AM 78.8 °F - 75.2 °F 89% 29.89 in - North - - N/A   Scattered Clouds
7:30 AM 80.6 °F 86.2 °F 75.2 °F 84% 29.89 in - North - - N/A   Scattered Clouds
8:00 AM 82.4 °F 88.2 °F 73.4 °F 74% 29.92 in - North - - N/A   Scattered Clouds
8:30 AM 84.2 °F 90.9 °F 73.4 °F 70% 29.92 in - North - - N/A   Scattered Clouds
9:00 AM 86.0 °F 93.4 °F 73.4 °F 66% 29.92 in - North - - N/A   Scattered Clouds
9:30 AM - - - N/A% 29.92 in - North - - N/A   Scattered Clouds
10:00 AM - - - N/A% 29.92 in 6.2 mi East 6.9 mph - N/A   Scattered Clouds
10:30 AM - - - N/A% 29.92 in 6.2 mi SE 5.8 mph - N/A   Scattered Clouds
11:00 AM - - - N/A% 29.89 in 6.2 mi SSE 4.6 mph - N/A   Scattered Clouds
11:30 AM - - - N/A% 29.89 in 6.2 mi SE 8.1 mph - N/A   Scattered Clouds
12:00 PM - - - N/A% 29.86 in 6.2 mi SE 8.1 mph - N/A   Scattered Clouds
12:30 PM - - - N/A% 29.86 in 6.2 mi East 9.2 mph - N/A   Scattered Clouds
1:00 PM - - - N/A% 29.83 in 6.2 mi ESE 9.2 mph - N/A   Partly Cloudy
1:30 PM 91.4 °F 98.4 °F 71.6 °F 52% 29.80 in 6.2 mi ESE 3.5 mph - N/A   Partly Cloudy
2:00 PM 93.2 °F 100.5 °F 71.6 °F 49% 29.80 in 6.2 mi South 9.2 mph - N/A   Partly Cloudy
2:30 PM 95.0 °F 104.5 °F 73.4 °F 49% 29.80 in 6.2 mi SSE 8.1 mph - N/A   Scattered Clouds
3:00 PM 95.0 °F 104.5 °F 73.4 °F 49% 29.80 in 6.2 mi SSE 9.2 mph - N/A   Scattered Clouds
3:30 PM 95.0 °F 103.2 °F 71.6 °F 47% 29.80 in 6.2 mi SSE 6.9 mph - N/A   Scattered Clouds
4:00 PM 93.2 °F 102.4 °F 73.4 °F 52% 29.80 in 6.2 mi SE 9.2 mph - N/A   Scattered Clouds
4:30 PM 91.4 °F 98.4 °F 71.6 °F 52% 29.80 in 6.2 mi South 8.1 mph - N/A   Partly Cloudy
5:00 PM 91.4 °F 98.4 °F 71.6 °F 52% 29.80 in 6.2 mi South 6.9 mph - N/A   Partly Cloudy
5:30 PM 87.8 °F 93.8 °F 71.6 °F 58% 29.83 in 6.2 mi South 3.5 mph - N/A   Partly Cloudy
6:00 PM 87.8 °F 93.8 °F 71.6 °F 58% 29.83 in 6.2 mi SSW 3.5 mph - N/A   Partly Cloudy
6:30 PM 87.8 °F 95.6 °F 73.4 °F 62% 29.83 in 5.6 mi South 4.6 mph - N/A   Partly Cloudy
7:00 PM 86.0 °F 91.8 °F 71.6 °F 62% 29.83 in 5.6 mi SSW 8.1 mph - N/A   Partly Cloudy
7:30 PM 86.0 °F 91.8 °F 71.6 °F 62% 29.86 in 5.6 mi SSW 3.5 mph - N/A   Partly Cloudy
8:00 PM 86.0 °F 91.8 °F 71.6 °F 62% 29.86 in 5.6 mi SW 3.5 mph - N/A   Partly Cloudy
8:30 PM 91.4 °F 107.2 °F 78.8 °F 66% 29.89 in 6.2 mi ESE 2.3 mph - N/A   Partly Cloudy
9:00 PM 86.0 °F 93.4 °F 73.4 °F 66% 29.89 in 6.2 mi Calm Calm - N/A   Partly Cloudy
9:30 PM 86.0 °F 96.9 °F 77.0 °F 74% 29.89 in 5.6 mi SE 1.2 mph - N/A   Partly Cloudy
10:00 PM 84.2 °F 90.9 °F 73.4 °F 70% 29.89 in 5.6 mi SSW 3.5 mph - N/A   Partly Cloudy
10:30 PM 84.2 °F 90.9 °F 73.4 °F 70% 29.89 in 5.6 mi SSE 3.5 mph - N/A   Partly Cloudy
11:30 PM 80.6 °F 85.4 °F 73.4 °F 79% 29.89 in 5.6 mi ESE 3.5 mph - N/A   Partly Cloudy